Weather History for KEAR - April, 2013

Change the Weather History Date:

Sunday, April 28, 2013

  Actual Average Record
Temperature  
Mean Temperature 67 °F 53 °F  
Max Temperature 88 °F 66 °F 100 °F (1910)
Min Temperature 45 °F 40 °F 22 °F (1918)
Degree Days  
Heating Degree Days 0 12  
Month to date heating degree days 473  
Since 1 July heating degree days 6245  
Cooling Degree Days 2 1  
Month to date cooling degree days 1  
Year to date cooling degree days 1  
Growing Degree Days 16 (Base 50)    
Moisture  
Dew Point 41 °F    
Average Humidity 53    
Maximum Humidity 93    
Minimum Humidity 12    
Precipitation  
Precipitation 0.00 in - 1.60 in (1982)
Sea Level Pressure  
Sea Level Pressure 29.80 in    
Wind  
Wind Speed 13 mph (SSW)    
Max Wind Speed 27 mph    
Max Gust Speed 32 mph    
Visibility 10 miles    
Events      
T = Trace of Precipitation, MM = Missing Value Source: NWS Daily Summary

Daily Weather History Graph

Daily Weather History Graph

Search for Another Location

Airport or City:

Trip Planner

Search our weather history database for the weather conditions in past years. The results will help you decide how hot, cold, wet, or windy it might be!

Date:

Astronomy

Apr. 28, 2013 Rise Set
Actual Time 6:38 AM CDT 8:29 PM CDT
Civil Twilight 6:08 AM CDT 8:58 PM CDT
Nautical Twilight 5:32 AM CDT 9:34 PM CDT
Astronomical Twilight 4:54 AM CDT 10:13 PM CDT
Moon No Moon Rise 8:55 AM CDT (4/28)
Length of Visible Light 14h 50m
Length of Day
13h 51m
Waning Gibbous, 88% of the Moon is Illuminated
Apr 28
Waning Gibbous
May 2
Last Quarter
May 9
New
May 17
First Quarter
May 24
Full

Hourly Weather History & Observations

Time (CDT) Temp. Windchill Dew Point Humidity Pressure Visibility Wind Dir Wind Speed Gust Speed Precip Events Conditions
12:15 AM 53.6 °F - 42.8 °F 67% 29.94 in 10.0 mi South 11.5 mph - N/A   Clear
12:35 AM 53.6 °F - 44.6 °F 72% 29.94 in 10.0 mi South 13.8 mph - N/A   Clear
12:55 AM 53.6 °F - 44.6 °F 72% 29.94 in 10.0 mi South 13.8 mph - N/A   Clear
1:15 AM 53.6 °F - 46.4 °F 77% 29.93 in 10.0 mi South 15.0 mph - N/A   Clear
1:35 AM 53.6 °F - 46.4 °F 77% 29.93 in 10.0 mi SSW 12.7 mph - N/A   Clear
1:55 AM 53.6 °F - 46.4 °F 77% 29.92 in 10.0 mi SSW 13.8 mph - N/A   Clear
2:15 AM 51.8 °F - 46.4 °F 82% 29.92 in 10.0 mi SSW 11.5 mph - N/A   Clear
2:35 AM 50.0 °F - 44.6 °F 82% 29.92 in 10.0 mi South 6.9 mph - N/A   Clear
2:55 AM 48.2 °F - 44.6 °F 87% 29.91 in 10.0 mi South 4.6 mph - N/A   Clear
3:15 AM 48.2 °F - 44.6 °F 87% 29.90 in 10.0 mi South 9.2 mph - N/A   Clear
3:35 AM 48.2 °F - 44.6 °F 87% 29.90 in 10.0 mi South 9.2 mph - N/A   Clear
3:55 AM 46.4 °F 41.9 °F 44.6 °F 93% 29.89 in 10.0 mi South 9.2 mph - N/A   Clear
4:15 AM 46.4 °F 41.5 °F 44.6 °F 93% 29.88 in 10.0 mi South 10.4 mph - N/A   Clear
4:35 AM 46.4 °F 41.1 °F 42.8 °F 87% 29.87 in 10.0 mi South 11.5 mph - N/A   Clear
4:55 AM 48.2 °F - 44.6 °F 87% 29.87 in 10.0 mi South 11.5 mph - N/A   Clear
5:15 AM 48.2 °F - 44.6 °F 87% 29.87 in 10.0 mi SSW 9.2 mph - N/A   Clear
5:35 AM 48.2 °F - 44.6 °F 87% 29.87 in 10.0 mi SSW 5.8 mph - N/A   Clear
5:55 AM 46.4 °F 42.9 °F 42.8 °F 87% 29.86 in 10.0 mi South 6.9 mph - N/A   Clear
6:15 AM 46.4 °F 42.4 °F 42.8 °F 87% 29.86 in 10.0 mi South 8.1 mph - N/A   Clear
6:35 AM 44.6 °F 40.2 °F 42.8 °F 93% 29.86 in 10.0 mi South 8.1 mph - N/A   Clear
6:55 AM 44.6 °F 40.2 °F 42.8 °F 93% 29.86 in 10.0 mi South 8.1 mph - N/A   Clear
7:15 AM 44.6 °F 39.7 °F 42.8 °F 93% 29.86 in 10.0 mi South 9.2 mph - N/A   Clear
7:35 AM 46.4 °F 42.4 °F 44.6 °F 93% 29.86 in 10.0 mi South 8.1 mph - N/A   Clear
7:55 AM 48.2 °F - 44.6 °F 87% 29.86 in 10.0 mi South 8.1 mph - N/A   Clear
8:15 AM 48.2 °F - 46.4 °F 93% 29.85 in 10.0 mi South 8.1 mph - N/A   Clear
8:35 AM 51.8 °F - 46.4 °F 82% 29.85 in 10.0 mi South 10.4 mph - N/A   Clear
8:55 AM 53.6 °F - 46.4 °F 77% 29.84 in 10.0 mi South 12.7 mph - N/A   Clear
9:15 AM 55.4 °F - 48.2 °F 77% 29.84 in 10.0 mi SSW 12.7 mph - N/A   Clear
9:35 AM 55.4 °F - 48.2 °F 77% 29.83 in 10.0 mi SSW 11.5 mph - N/A   Clear
9:55 AM 59.0 °F - 48.2 °F 67% 29.82 in 10.0 mi SSW 11.5 mph - N/A   Clear
10:15 AM 62.6 °F - 48.2 °F 59% 29.82 in 10.0 mi South 9.2 mph - N/A   Clear
10:35 AM 64.4 °F - 48.2 °F 56% 29.81 in 10.0 mi South 11.5 mph - N/A   Clear
10:55 AM 66.2 °F - 46.4 °F 49% 29.81 in 10.0 mi South 8.1 mph - N/A   Clear
11:15 AM 69.8 °F - 46.4 °F 43% 29.81 in 10.0 mi SSW 6.9 mph - N/A   Clear
11:35 AM 71.6 °F - 46.4 °F 41% 29.80 in 10.0 mi South 8.1 mph - N/A   Clear
11:55 AM 73.4 °F - 44.6 °F 36% 29.79 in 10.0 mi South 11.5 mph - N/A   Clear
12:15 PM 75.2 °F - 44.6 °F 34% 29.79 in 10.0 mi South 15.0 mph 20.7 mph N/A   Clear
12:35 PM 77.0 °F - 44.6 °F 32% 29.78 in 10.0 mi South 15.0 mph - N/A   Clear
12:55 PM 78.8 °F - 44.6 °F 30% 29.77 in 10.0 mi South 13.8 mph 20.7 mph N/A   Clear
1:15 PM 78.8 °F - 42.8 °F 28% 29.76 in 10.0 mi South 15.0 mph 19.6 mph N/A   Clear
1:35 PM 80.6 °F - 42.8 °F 26% 29.75 in 10.0 mi South 17.3 mph 20.7 mph N/A   Clear
1:55 PM 78.8 °F - 42.8 °F 28% 29.75 in 10.0 mi SSW 16.1 mph 23.0 mph N/A   Clear
2:15 PM 78.8 °F - 42.8 °F 28% 29.75 in 10.0 mi South 18.4 mph 21.9 mph N/A   Clear
2:35 PM 80.6 °F - 42.8 °F 26% 29.74 in 10.0 mi South 13.8 mph 20.7 mph N/A   Clear
2:55 PM 82.4 °F - 44.6 °F 26% 29.74 in 10.0 mi SW 15.0 mph 21.9 mph N/A   Clear
3:15 PM 84.2 °F - 37.4 °F 19% 29.73 in 10.0 mi SSW 15.0 mph 19.6 mph N/A   Clear
3:35 PM 84.2 °F - 33.8 °F 16% 29.73 in 10.0 mi SW 12.7 mph - N/A   Clear
3:55 PM 82.4 °F - 37.4 °F 20% 29.71 in 10.0 mi SSW 10.4 mph - N/A   Clear
4:15 PM 84.2 °F - 37.4 °F 19% 29.70 in 10.0 mi SW 6.9 mph 18.4 mph N/A   Clear
4:35 PM 86.0 °F - 37.4 °F 18% 29.69 in 10.0 mi SSE 9.2 mph - N/A   Clear
4:55 PM 87.8 °F - 33.8 °F 15% 29.68 in 10.0 mi WSW 5.8 mph - N/A   Clear
5:15 PM 87.8 °F - 30.2 °F 13% 29.67 in 10.0 mi WSW 18.4 mph 21.9 mph N/A   Clear
5:35 PM 87.8 °F - 28.4 °F 12% 29.67 in 10.0 mi West 16.1 mph 24.2 mph N/A   Clear
5:55 PM 87.8 °F - 28.4 °F 12% 29.67 in 10.0 mi West 11.5 mph - N/A   Clear
6:15 PM 87.8 °F - 28.4 °F 12% 29.67 in 10.0 mi West 9.2 mph - N/A   Clear
6:35 PM 87.8 °F - 30.2 °F 13% 29.67 in 10.0 mi NW 9.2 mph - N/A   Clear
6:55 PM 82.4 °F - 37.4 °F 20% 29.68 in 10.0 mi NNW 26.5 mph 32.2 mph N/A   Clear
7:15 PM 78.8 °F - 37.4 °F 23% 29.70 in 10.0 mi NNW 21.9 mph 29.9 mph N/A   Clear
7:35 PM 77.0 °F - 35.6 °F 22% 29.71 in 10.0 mi North 26.5 mph 35.7 mph N/A   Clear
7:55 PM 75.2 °F - 35.6 °F 24% 29.72 in 10.0 mi NNW 21.9 mph - N/A   Clear
8:15 PM 75.2 °F - 37.4 °F 25% 29.73 in 10.0 mi North 19.6 mph 26.5 mph N/A   Clear
8:35 PM 73.4 °F - 37.4 °F 27% 29.74 in 10.0 mi North 21.9 mph 27.6 mph N/A   Clear
8:55 PM 69.8 °F - 35.6 °F 28% 29.76 in 10.0 mi North 18.4 mph 26.5 mph N/A   Clear
9:15 PM 69.8 °F - 35.6 °F 28% 29.76 in 10.0 mi North 19.6 mph 23.0 mph N/A   Clear
9:35 PM 66.2 °F - 35.6 °F 32% 29.77 in 10.0 mi North 16.1 mph 23.0 mph N/A   Clear
9:55 PM 66.2 °F - 35.6 °F 32% 29.78 in 10.0 mi North 18.4 mph - N/A   Clear
10:15 PM 64.4 °F - 35.6 °F 34% 29.79 in 10.0 mi North 19.6 mph 24.2 mph N/A   Clear
10:35 PM 62.6 °F - 35.6 °F 37% 29.79 in 10.0 mi North 15.0 mph - N/A   Clear
10:55 PM 62.6 °F - 37.4 °F 39% 29.79 in 10.0 mi NNE 18.4 mph - N/A   Clear
11:15 PM 62.6 °F - 37.4 °F 39% 29.81 in 10.0 mi NNE 19.6 mph - N/A   Clear
11:35 PM 62.6 °F - 37.4 °F 39% 29.79 in 10.0 mi NNE 18.4 mph - N/A   Clear
11:55 PM 62.6 °F - 39.2 °F 42% 29.79 in 10.0 mi NE 18.4 mph 23.0 mph N/A   Clear